OneWeb SL0228

operational
NORAD ID: 48780 Int'l Des: 2021-045 Owner: ONEWEBN Country: UK Constellation: oneweb
LEOCIRCULARPOLARONEWEB_TYPE

关于 OneWeb SL0228

正在加载描述...

实时位置

正在加载3D地球...

即将过境

高度历史

Altitude vs Time

uPlot chart will show altitude changes over time

两行轨道根数

1 48780U 21045P 25258.60424714 .00000088 00000-0 19927-3 0 9996
2 48780 87.9032 313.9559 0001732 96.5420 263.5908 13.15550535208222
Epoch: Sep 15, 2025 • Age: 13 hours

当前状态

高度 1208.8 km
速度 7.25 km/s
星下点 50.61°N, 76.92°E
发射日期 May 28, 2021
运行时间 4.3 years
类型 internet

技术详情

分类 Payload
质量 148.00 kg
干质量 140.00 kg
总质量 148.00 kg
长度 1.30 m
直径 1.00 m
跨度 5.00 m
形状 Trapezoid+2 pan
制造商 ONEWUS
平台类型 ARROW
阶段状态 In Orbit
所有者/国家 ONEWEBN/UK

大型星座

Loading constellations...